This is the latest recevied weather packets stored in our database for station/object N5SNT-2. If no packets are shown the sender has not sent any weather packets the latest 10 day(s).
| Time | Temp. | Humidity | Pressure | Rain* | Wind** | Luminosity | Snow |
|---|---|---|---|---|---|---|---|
| 1778014643 | 28.33° C | 72% | 1008 hPa | 0 mm | - | 579 W/m² | - |
| 1778014343 | 28.33° C | 73% | 1008 hPa | 0 mm | - | 388 W/m² | - |
| 1778014043 | 28.33° C | 72% | 1008 hPa | 0 mm | - | 323 W/m² | - |
| 1778013744 | 28.89° C | 73% | 1008 hPa | 0 mm | - | 292 W/m² | - |
| 1778013444 | 28.89° C | 72% | 1008 hPa | 0 mm | - | 747 W/m² | - |
| 1778013143 | 27.78° C | 74% | 1008 hPa | 0 mm | - | 827 W/m² | - |
| 1778012844 | 27.78° C | 74% | 1009 hPa | 0 mm | - | 301 W/m² | - |
| 1778012543 | 27.78° C | 75% | 1009 hPa | 0 mm | - | 313 W/m² | - |
| 1778012243 | 27.78° C | 75% | 1009 hPa | 0 mm | - | 629 W/m² | - |
| 1778011944 | 28.33° C | 74% | 1008 hPa | 0 mm | - | 342 W/m² | - |
| 1778011651 | 28.33° C | 73% | 1009 hPa | 0 mm | - | 865 W/m² | - |
| 1778011345 | 27.78° C | 73% | 1009 hPa | 0 mm | - | 415 W/m² | - |
| 1778011046 | 28.33° C | 73% | 1009 hPa | 0 mm | - | 384 W/m² | - |
| 1778010745 | 27.78° C | 75% | 1009 hPa | 0 mm | - | 490 W/m² | - |
| 1778010444 | 27.78° C | 75% | 1009 hPa | 0 mm | - | 635 W/m² | - |
| 1778010143 | 27.78° C | 76% | 1009 hPa | 0 mm | - | 444 W/m² | - |
| 1778009843 | 27.22° C | 77% | 1009 hPa | 0 mm | - | 517 W/m² | - |
| 1778009543 | 27.22° C | 78% | 1009 hPa | 0 mm | - | 440 W/m² | - |
| 1778009243 | 27.22° C | 78% | 1009 hPa | 0 mm | - | - | - |
| 1778008944 | 26.67° C | 79% | 1009 hPa | 0 mm | - | 468 W/m² | - |
| 1778008644 | 26.67° C | 79% | 1009 hPa | 0 mm | - | 531 W/m² | - |
| 1778008343 | 26.67° C | 78% | 1010 hPa | 0 mm | - | 343 W/m² | - |
| 1778008044 | 26.67° C | 79% | 1010 hPa | 0 mm | - | 372 W/m² | - |
| 1778007743 | 26.67° C | 78% | 1010 hPa | 0 mm | - | 386 W/m² | - |
| 1778007443 | 26.11° C | 79% | 1010 hPa | 0 mm | - | 488 W/m² | - |
* Rain latest hour (hover to see other rain measurements)
** Current wind speed in m/s (hover to see current wind gust speed)